Wetbulb
57.41 58.99 59.91 59.78 61.13 67.32 69.00 68.86 69.43 70.28 71.06 71.23 70.65 70.32 70.37 70.97 70.78 70.58 70.44 70.14 70.02 70.02 69.08 68.85 69.01 68.27 67.89 67.79 67.57 67.78 67.19 66.34
56.67 57.42 58.27 58.76 59.41 60.51 63.30 68.78 69.61 69.11 68.92 68.44 68.26 67.94 68.83 69.04 70.16 70.81 70.56 70.16 69.82 69.73 68.75 68.79 69.06 67.97 67.69 68.24 67.66 67.02 66.41 67.41
54.59 55.86 56.79 57.60 58.20 58.87 60.04 61.69 67.03 69.54 69.18 68.96 68.70 67.95 68.45 68.84 69.43 70.16 70.71 70.37 70.36 69.88 69.67 68.30 68.38 67.49 67.92 68.05 67.58 66.12 66.08 67.09
52.76 53.65 55.14 56.12 56.11 57.40 58.37 59.73 61.60 64.77 69.80 69.97 69.18 68.45 68.15 67.48 68.01 68.70 70.56 70.25 70.33 70.61 69.59 69.59 69.90 68.95 66.93 69.21 68.39 67.33 64.40 66.18
53.19 53.35 53.59 54.84 55.26 56.18 57.11 58.40 59.86 62.94 66.01 68.98 68.35 66.87 65.77 67.22 67.85 68.73 69.40 70.22 70.36 70.52 71.08 70.27 70.64 69.70 68.86 69.06 68.63 68.71 67.30 64.89
52.41 52.86 53.42 53.78 54.66 54.31 54.96 56.27 57.21 59.02 62.16 65.90 68.58 68.00 68.40 68.09 68.51 68.47 69.79 70.60 70.46 69.75 70.50 70.68 70.95 70.58 70.56 70.19 69.91 69.70 68.14 67.11
52.81 53.37 53.35 52.90 53.49 52.99 53.35 53.43 53.69 55.12 57.68 58.62 65.03 68.03 68.24 67.91 67.98 67.42 67.36 68.35 69.20 69.74 69.90 71.09 71.66 70.70 70.36 69.69 69.95 69.49 69.11 68.73
51.20 51.14 51.05 51.16 51.16 51.24 51.73 51.53 50.66 50.63 53.09 54.75 53.69 59.92 68.20 67.83 67.90 68.46 67.58 67.31 67.89 69.03 69.49 70.49 70.19 71.01 70.38 70.18 70.06 69.85 69.65 68.46
49.30 49.49 50.18 49.92 49.99 49.90 49.81 48.61 49.81 48.93 48.48 50.73 51.92 51.53 53.63 64.03 67.80 68.29 69.09 68.72 68.66 70.03 70.00 69.65 69.65 69.83 69.99 70.27 70.02 69.51 69.84 69.61
48.20 48.67 49.38 49.69 49.31 49.19 48.04 47.17 47.10 47.85 47.51 48.35 49.29 50.07 51.06 51.76 52.98 54.91 65.38 69.51 69.32 70.01 70.14 69.16 69.00 69.30 69.59 69.70 69.22 69.04 69.13 69.52
48.26 48.30 48.44 48.59 49.06 48.83 48.34 46.83 46.24 46.58 46.96 47.08 48.29 48.25 49.14 50.45 51.44 51.41 52.30 53.59 62.33 67.37 68.32 69.11 69.16 69.08 69.41 69.43 69.13 69.16 69.25 69.61
47.75 47.89 48.49 48.56 48.71 48.27 47.15 46.31 45.36 44.97 45.66 46.08 46.88 46.79 47.55 48.17 48.32 49.26 50.24 51.96 52.78 54.24 65.55 66.90 67.51 68.41 68.98 69.03 69.04 68.64 67.46 67.76
47.96 47.69 47.99 47.80 47.85 47.36 46.98 45.80 44.98 45.47 45.21 45.07 45.70 46.44 46.04 46.66 46.94 47.39 48.46 49.14 50.90 51.58 53.56 60.65 65.57 66.96 66.63 66.19 67.96 67.96 67.21 66.76
47.45 47.43 46.89 46.82 47.09 46.70 45.98 45.52 44.48 44.98 45.50 44.50 44.54 44.21 44.21 44.27 45.12 46.75 46.74 47.55 49.04 49.91 50.56 52.26 56.72 64.09 65.74 66.04 66.75 68.49 68.47 68.22
46.10 46.27 46.57 46.89 46.53 46.40 45.87 45.90 46.39 44.68 44.66 45.13 43.47 43.02 42.97 43.12 43.62 44.34 44.84 46.47 46.95 47.84 48.62 50.65 52.21 53.96 62.89 63.19 64.17 65.70 67.07 66.41
44.93 45.20 45.63 45.91 45.74 45.70 45.59 45.66 45.86 45.22 44.06 44.07 43.75 42.90 42.84 42.86 42.49 42.84 43.57 44.60 45.41 46.11 47.42 48.58 50.96 52.67 53.18 49.76 52.16 61.46 63.54 63.37
44.47 44.81 44.74 44.64 44.55 44.41 44.71 44.72 44.78 45.65 43.42 42.62 44.21 44.58 43.42 41.69 41.74 41.63 42.55 42.23 42.93 44.11 45.03 46.34 48.74 50.44 42.64 42.00 45.00 51.28 59.26 62.35
43.70 43.96 44.24 44.27 44.11 44.38 43.91 44.35 45.13 44.47 44.10 43.61 43.20 42.65 43.09 41.92 40.77 41.10 41.99 40.98 41.36 41.56 42.65 44.74 46.56 48.82 40.45 40.84 39.83 49.02 53.97 59.32
43.93 44.26 44.09 44.01 44.69 44.48 44.49 44.32 43.99 43.55 43.26 42.85 43.12 42.18 42.28 43.01 43.02 40.95 41.20 41.15 41.06 40.73 41.26 43.61 44.86 46.78 40.32 39.91 39.20 49.51 52.02 56.55
MSLP
1013.90 1013.66 1013.44 1012.85 1012.20 1011.23 1011.75 1012.40 1012.96 1013.07 1013.28 1013.64 1013.91 1014.27 1014.59 1014.32 1014.20 1014.38 1015.04 1015.64 1016.02 1016.20 1016.26 1016.33 1016.64 1016.67 1016.73 1016.89 1017.01 1017.11 1017.23 1017.04
1015.09 1014.86 1014.61 1014.23 1014.03 1013.44 1012.72 1011.95 1012.58 1013.14 1012.82 1012.57 1012.59 1012.80 1013.52 1014.02 1013.75 1013.73 1014.11 1014.73 1015.05 1015.37 1015.46 1015.56 1016.07 1016.11 1016.10 1016.30 1016.59 1016.79 1016.56 1016.88
1015.89 1015.56 1015.37 1015.13 1015.10 1014.78 1014.17 1013.58 1012.52 1012.34 1012.51 1012.25 1012.02 1011.92 1012.14 1012.65 1012.81 1012.78 1013.17 1013.23 1013.78 1014.16 1014.46 1014.55 1014.96 1015.38 1015.64 1015.74 1016.03 1016.01 1015.99 1016.12
1016.81 1016.50 1016.09 1015.87 1015.56 1015.49 1015.11 1014.56 1013.74 1012.75 1011.88 1011.91 1011.79 1011.76 1011.66 1011.54 1011.59 1011.68 1011.91 1012.58 1012.70 1012.97 1013.39 1013.85 1013.99 1014.40 1014.47 1014.99 1015.31 1015.44 1015.15 1015.41
1017.47 1017.34 1016.95 1016.59 1016.66 1016.59 1015.93 1015.00 1014.29 1013.11 1012.29 1011.41 1011.29 1010.91 1010.44 1010.26 1010.45 1010.70 1010.93 1011.33 1011.65 1011.90 1011.96 1012.38 1013.17 1013.38 1013.55 1013.71 1014.40 1014.64 1015.00 1014.32
1018.07 1018.07 1017.84 1017.74 1017.39 1017.05 1016.50 1015.70 1015.08 1014.38 1013.06 1011.78 1010.99 1010.69 1010.43 1010.21 1010.01 1009.96 1010.24 1010.35 1010.68 1011.11 1011.42 1011.85 1011.75 1012.18 1012.63 1013.08 1013.31 1013.73 1013.89 1014.04
1018.71 1018.78 1018.67 1018.43 1018.13 1017.66 1017.21 1016.28 1016.00 1015.47 1014.57 1013.33 1011.70 1010.62 1010.45 1010.21 1009.72 1009.39 1009.50 1009.58 1009.83 1010.18 1010.57 1010.85 1011.05 1011.25 1011.35 1011.79 1012.57 1012.89 1013.18 1013.22
1019.23 1019.15 1019.30 1019.05 1018.72 1018.56 1017.92 1017.67 1016.85 1016.79 1015.94 1014.85 1013.96 1012.32 1010.52 1010.10 1009.82 1009.36 1009.01 1008.86 1008.92 1009.16 1009.70 1010.00 1010.19 1010.38 1010.63 1010.98 1011.33 1011.58 1011.84 1012.18
1019.77 1019.91 1020.01 1019.94 1019.78 1019.59 1019.09 1018.89 1018.29 1017.68 1017.19 1016.10 1015.23 1014.50 1013.38 1011.06 1009.75 1009.11 1008.65 1008.23 1008.20 1008.31 1008.55 1008.83 1009.01 1009.27 1009.50 1009.85 1009.96 1010.21 1010.58 1010.80
1020.19 1020.25 1020.33 1020.25 1020.21 1020.29 1020.29 1019.47 1019.37 1018.88 1017.99 1017.34 1016.37 1015.43 1014.35 1013.81 1012.59 1011.37 1009.64 1008.35 1007.61 1007.41 1007.47 1007.91 1008.26 1008.25 1008.21 1008.32 1008.48 1008.59 1008.90 1009.28
1020.49 1020.53 1020.61 1020.65 1020.56 1020.91 1020.51 1020.27 1020.15 1019.73 1018.52 1017.87 1017.26 1016.27 1015.52 1015.11 1013.74 1012.45 1010.85 1011.34 1009.15 1007.00 1006.58 1006.65 1007.00 1007.24 1007.39 1007.44 1007.29 1007.53 1007.82 1008.12
1020.70 1020.83 1020.80 1020.89 1020.84 1020.74 1020.61 1020.85 1020.44 1019.95 1019.31 1018.39 1017.99 1017.13 1016.26 1015.09 1014.23 1014.37 1012.67 1011.68 1011.11 1008.76 1007.27 1006.01 1005.88 1006.16 1006.36 1006.38 1006.44 1006.44 1006.50 1006.94
1020.75 1020.96 1020.98 1020.95 1020.81 1020.84 1020.59 1020.76 1020.77 1019.76 1019.81 1018.88 1018.61 1017.80 1016.57 1015.78 1015.34 1014.31 1013.23 1012.54 1011.36 1009.74 1009.10 1006.69 1005.95 1005.37 1005.58 1005.89 1005.66 1005.67 1005.52 1005.72
1020.81 1020.82 1021.02 1021.03 1020.95 1020.96 1020.59 1020.35 1020.28 1020.10 1019.58 1019.30 1018.49 1017.85 1016.95 1016.30 1015.80 1015.12 1014.78 1012.87 1011.22 1010.34 1008.93 1007.81 1006.87 1006.00 1005.20 1004.92 1004.93 1004.76 1004.80 1004.93
1021.08 1021.17 1021.17 1021.16 1021.15 1021.02 1020.74 1020.71 1020.58 1020.38 1019.69 1018.85 1018.33 1018.27 1017.49 1017.02 1016.38 1015.42 1014.61 1013.86 1012.45 1010.42 1009.84 1008.73 1007.63 1007.37 1005.85 1005.53 1004.64 1004.40 1004.24 1004.74
1021.30 1021.37 1021.39 1021.36 1021.26 1021.02 1020.83 1020.62 1020.15 1019.88 1019.41 1019.14 1017.96 1018.03 1019.13 1016.42 1016.99 1015.79 1014.84 1013.41 1012.72 1011.79 1010.39 1009.48 1009.01 1008.24 1007.71 1007.49 1006.82 1005.76 1005.10 1004.80
1021.47 1021.64 1021.65 1021.57 1021.42 1021.33 1020.98 1020.57 1020.17 1019.72 1019.28 1018.80 1018.44 1018.04 1017.15 1019.44 1016.56 1015.68 1015.04 1013.46 1012.93 1011.61 1011.29 1010.00 1008.85 1008.26 1008.58 1008.64 1008.13 1006.64 1005.44 1003.84
1021.72 1021.85 1021.86 1021.84 1021.69 1021.54 1021.22 1020.87 1020.39 1020.02 1019.34 1018.93 1018.70 1018.40 1018.29 1017.25 1016.41 1016.18 1015.79 1014.10 1012.95 1011.51 1011.50 1010.89 1009.62 1008.82 1008.60 1008.63 1007.60 1007.20 1006.00 1004.56
1022.01 1022.09 1022.06 1021.98 1021.81 1021.57 1021.34 1020.89 1020.29 1019.87 1019.43 1019.08 1018.68 1018.20 1017.37 1016.39 1015.79 1015.55 1015.18 1014.70 1014.62 1010.95 1011.64 1011.84 1009.78 1009.00 1008.47 1008.35 1007.82 1007.02 1005.88 1004.38
Wind_Speed
23 24 22 20 23 9 14 15 18 18 15 14 12 12 12 12 13 13 16 14 18 15 13 13 12 11 12 11 13 11 11 10
23 23 23 24 23 21 24 13 16 14 14 14 15 15 13 13 14 18 18 16 18 18 14 14 13 13 14 13 13 14 11 10
28 27 25 26 24 21 21 19 18 15 14 14 13 13 14 14 15 17 19 21 20 18 17 15 16 14 15 15 15 12 12 11
25 27 26 25 28 26 22 21 21 19 18 14 13 13 12 14 16 16 18 21 21 20 19 16 14 14 13 14 15 17 13 11
22 24 25 25 24 24 26 25 24 19 21 17 21 16 16 14 14 15 15 21 22 21 20 19 17 13 15 14 14 14 14 13
21 22 22 24 23 23 23 26 27 26 25 17 16 20 15 13 13 16 17 16 21 22 20 19 18 15 15 16 14 15 14 13
18 20 20 21 22 23 23 26 28 28 27 24 19 22 18 16 15 13 13 13 14 19 20 18 17 16 17 15 16 17 15 14
18 19 20 21 24 24 22 26 26 25 25 26 23 22 18 20 19 14 15 12 12 14 18 17 16 17 17 16 16 16 17 15
17 18 17 18 21 23 23 24 24 21 22 23 19 25 16 14 14 14 13 13 14 14 15 17 20 19 17 17 14 14 16 15
17 17 17 18 18 19 20 21 20 20 19 18 18 18 19 20 19 20 15 15 13 16 16 17 18 19 20 19 15 17 17 17
14 15 16 17 17 16 15 17 19 18 18 16 15 16 16 15 16 20 18 19 21 14 14 17 19 19 19 19 16 18 17 14
13 13 15 15 16 17 16 14 17 17 17 16 16 15 15 15 15 17 17 15 18 19 15 14 16 17 17 17 18 19 18 16
11 12 14 15 16 18 16 16 16 16 15 15 15 14 15 15 15 17 17 17 17 17 16 16 11 15 14 16 18 17 17 16
13 13 13 15 16 16 17 17 16 16 15 14 14 16 16 16 16 16 16 16 17 17 17 17 16 12 11 16 17 18 19 18
12 14 15 15 16 17 16 15 15 15 14 15 15 14 16 16 16 15 16 15 16 17 17 15 17 18 9 8 7 9 11 12
12 14 15 16 18 17 16 16 16 16 16 16 14 13 13 17 16 17 16 15 16 15 15 16 13 13 9 13 15 12 12 14
13 14 16 17 17 16 17 17 17 17 16 16 17 16 16 12 15 18 17 17 16 17 16 14 19 12 10 11 12 14 14 12
13 14 15 15 15 14 16 16 16 16 16 16 16 16 16 14 13 16 18 18 16 17 18 17 18 17 11 14 13 14 13 12
12 13 14 14 14 15 15 15 16 15 15 16 16 17 18 17 15 14 15 14 16 16 16 18 19 16 13 15 17 15 14 13
Wind_Direction
18 18 17 7 359 300 242 229 229 222 219 219 226 224 230 230 222 221 220 217 220 218 230 227 220 223 220 219 225 219 233 237
28 28 24 17 11 360 345 253 241 234 224 219 214 221 219 225 234 224 221 223 217 217 222 219 222 225 227 217 223 227 222 230
31 31 29 28 20 11 2 344 307 239 241 236 235 228 219 225 225 228 221 216 217 216 218 220 214 224 227 224 221 227 229 221
27 24 26 23 25 18 11 358 337 313 244 249 242 239 239 227 226 225 221 223 220 216 217 223 219 217 224 221 219 219 229 222
24 22 22 21 20 15 15 11 5 347 312 245 251 238 233 229 231 228 225 220 222 219 214 212 221 221 221 221 218 224 223 230
20 21 21 20 16 15 13 11 13 6 346 308 244 247 248 247 235 239 228 228 223 226 221 223 216 214 224 226 224 217 225 231
20 18 15 20 23 21 15 14 12 7 9 356 317 246 252 258 254 247 235 231 230 226 227 226 225 223 221 220 223 228 226 235
16 20 13 16 17 15 17 10 17 3 2 12 3 349 258 257 261 261 252 241 235 234 224 228 228 231 230 225 224 224 223 226
25 22 18 17 12 13 12 8 3 7 359 3 0 15 359 332 275 255 264 251 245 232 231 225 226 228 228 226 224 223 223 225
24 19 19 14 15 13 5 11 359 1 3 356 0 1 5 3 360 11 328 267 250 245 234 231 232 229 224 220 221 221 220 218
18 14 14 12 14 6 13 9 360 353 360 358 352 360 2 356 350 355 4 343 337 276 242 230 233 230 232 226 223 223 225 223
11 8 7 9 6 7 12 0 358 357 352 355 347 352 356 356 2 346 353 341 336 349 311 248 233 233 232 227 229 228 220 223
6 3 1 359 2 359 357 2 354 2 341 352 346 347 353 356 346 343 357 340 336 343 335 342 304 237 230 225 231 221 223 211
351 355 0 355 354 353 352 357 350 353 348 340 351 349 351 351 345 337 329 338 338 344 342 349 347 314 246 219 230 227 218 218
349 346 349 352 350 346 347 349 344 346 343 348 348 348 348 343 338 338 337 333 333 342 345 335 346 335 304 303 297 248 218 227
347 344 343 345 344 343 345 341 347 347 343 343 352 354 312 349 333 334 330 338 335 337 332 337 333 334 9 5 346 294 245 239
339 341 343 341 339 341 339 342 343 342 341 343 341 337 348 306 328 334 327 336 332 336 331 332 331 328 353 357 346 332 305 275
337 338 339 337 338 337 337 334 334 336 339 340 337 335 323 330 330 323 321 325 328 338 328 323 317 316 344 341 357 327 312 312
333 335 335 337 334 335 330 331 333 334 336 336 337 333 329 331 327 322 314 318 303 336 317 308 316 308 331 340 328 316 315 308